Location: Newark
(41.8083°N, 72.2500°W)
Time: 00:45:41
(UTC+00:00)

Vanguard 1 Rocket - Pass Details

Date: 10 December 2021
Orbit: 651 x 4224 km, 34.3° (Epoch: 15 January)

Event Time Altitude Azimuth Distance (km) Brightness Sun altitude
Exits shadow 10:50:45 13° 269° (W) 4,679 10.4 -13.5°
Maximum altitude 11:04:02 47° 204° (SSW) 4,006 10.6 -11.2°
Drops below altitude 10° 11:26:36 10° 140° (SE) 7,391 13.2 -7.3°
Sets 11:33:00 0° 135° (SE) 8,455 13.9 -6.2°
